Date String (YYYY-MM-DD hh:mm:ss) UTC,Instrument flags,Ambient pressure (hPa),Sample flow (lpm),Bypass flow (lpm),Sample temperature (°C),Ambient temperature (°C),ASC tube jacket temperature (°C),LED temperature (°C),Box temperature (°C),Sample RH (%),Span deviation,Mass concentration (μg/m³),Mass concentration (μg/m³),Mass concentration (μg/m³)
DateTimeUTC,F1_M11,P_M11,Q1_M11,Q2_M11,T1_M11,T2_M11,T3_M11,T4_M11,T5_M11,U1_M11,ZSPAN_M11,X2_M11,X0_M11,X1_M11
2022-10-20 11:00:00,,0828.8,5.00,0.00,27.4,25.6,00.0,36.3,29.3,08.0,0000.0,0003.29,0007.94,0002.55
2022-10-20 11:01:00,,0828.6,5.00,0.00,27.4,25.6,00.0,36.3,29.2,07.9,0000.0,0003.29,0008.62,0002.54
2022-10-20 11:02:00,,0828.7,4.99,0.00,27.4,25.6,00.0,36.3,29.1,07.9,0000.0,0003.30,0009.11,0002.57
2022-10-20 11:03:00,,0828.7,5.00,0.00,27.4,25.6,00.0,36.3,29.1,08.0,0000.0,0003.33,0009.16,0002.59
2022-10-20 11:04:00,,0828.8,5.00,0.00,27.3,25.6,00.0,36.3,29.1,08.0,0000.0,0003.35,0009.14,0002.59
2022-10-20 11:05:00,,0828.9,5.00,0.00,27.3,25.6,00.0,36.3,29.0,08.0,0000.0,0003.34,0008.69,0002.59
2022-10-20 11:06:00,,0828.8,5.00,0.00,27.3,25.6,00.0,36.3,29.0,08.0,0000.0,0003.34,0008.79,0002.56
2022-10-20 11:07:00,,0828.8,5.02,0.00,27.3,25.6,00.0,36.3,29.1,07.9,0000.0,0003.29,0008.47,0002.49
2022-10-20 11:08:00,,0829.0,5.00,0.00,27.3,25.6,00.0,36.3,29.2,07.9,0000.0,0003.25,0008.34,0002.45
2022-10-20 11:09:00,,0828.9,4.99,0.00,27.3,25.6,00.0,36.2,29.1,07.9,0000.0,0003.24,0008.20,0002.44
2022-10-20 11:10:00,,0828.9,4.99,0.00,27.3,25.6,00.0,36.2,29.1,07.9,0000.0,0003.24,0008.25,0002.43
2022-10-20 11:11:00,,0828.8,5.00,0.00,27.3,25.5,00.0,36.2,29.0,07.9,0000.0,0003.25,0008.43,0002.40
2022-10-20 11:12:00,,0829.0,5.01,0.00,27.3,25.5,00.0,36.2,29.0,07.9,0000.0,0003.21,0008.37,0002.41
2022-10-20 11:13:00,,0829.0,4.99,0.00,27.3,25.5,00.0,36.2,29.0,07.9,0000.0,0003.18,0007.63,0002.41
2022-10-20 11:14:00,,0829.0,5.00,0.00,27.3,25.5,00.0,36.2,29.1,08.0,0000.0,0003.16,0007.51,0002.41
2022-10-20 11:15:00,,0829.0,5.01,0.00,27.3,25.5,00.0,36.2,29.1,08.0,0000.0,0003.19,0007.65,0002.43
2022-10-20 11:16:00,,0829.0,4.99,0.00,27.3,25.5,00.0,36.2,29.0,08.1,0000.0,0003.22,0008.58,0002.43
2022-10-20 11:17:00,,0829.0,5.01,0.00,27.3,25.5,00.0,36.2,29.0,08.2,0000.0,0003.20,0008.60,0002.44
2022-10-20 11:18:00,,0829.0,4.99,0.00,27.2,25.5,00.0,36.2,29.0,08.0,0000.0,0003.21,0008.54,0002.47
2022-10-20 11:19:00,,0828.6,5.02,0.00,27.2,25.5,00.0,36.2,29.1,08.1,0000.0,0003.22,0008.47,0002.49
2022-10-20 11:20:00,,0828.5,4.99,0.00,27.2,25.5,00.0,36.2,29.0,08.1,0000.0,0003.22,0008.62,0002.49
2022-10-20 11:21:00,,0828.5,5.00,0.00,27.2,25.4,00.0,36.2,29.0,08.0,0000.0,0003.24,0008.53,0002.51
2022-10-20 11:22:00,,0828.5,5.01,0.00,27.2,25.4,00.0,36.2,29.0,08.0,0000.0,0003.23,0008.28,0002.53
2022-10-20 11:23:00,,0828.5,4.99,0.00,27.2,25.4,00.0,36.2,29.0,07.9,0000.0,0003.23,0007.47,0002.55
2022-10-20 11:24:00,,0828.5,5.01,0.00,27.2,25.4,00.0,36.1,28.9,07.9,0000.0,0003.23,0007.36,0002.55
2022-10-20 11:25:00,,0828.5,4.99,0.00,27.2,25.4,00.0,36.1,28.8,08.0,0000.0,0003.23,0007.37,0002.55
2022-10-20 11:26:00,,0828.5,5.01,0.00,27.1,25.4,00.0,36.1,28.9,08.0,0000.0,0003.20,0007.15,0002.55
2022-10-20 11:27:00,,0828.4,4.99,0.00,27.1,25.4,00.0,36.1,28.9,08.0,0000.0,0003.18,0005.58,0002.56
2022-10-20 11:28:00,,0828.5,5.01,0.00,27.1,25.3,00.0,36.1,28.8,08.1,0000.0,0003.26,0005.98,0002.62
2022-10-20 11:29:00,,0828.5,5.01,0.00,27.1,25.3,00.0,36.1,28.8,08.1,0000.0,0003.31,0007.17,0002.69
2022-10-20 11:30:00,,0828.5,4.99,0.00,27.1,25.3,00.0,36.1,28.9,08.1,0000.0,0003.36,0007.66,0002.74
2022-10-20 11:31:00,,0828.5,5.01,0.00,27.1,25.3,00.0,36.1,28.9,08.0,0000.0,0003.43,0008.51,0002.79
2022-10-20 11:32:00,,0828.5,5.00,0.00,27.1,25.3,00.0,36.1,28.8,07.9,0000.0,0003.43,0008.81,0002.80
2022-10-20 11:33:00,,0828.5,4.98,0.00,27.1,25.3,00.0,36.0,28.9,08.0,0000.0,0003.43,0009.16,0002.83
2022-10-20 11:34:00,,0828.5,5.01,0.00,27.1,25.4,00.0,36.0,28.9,08.0,0000.0,0003.42,0010.76,0002.84
2022-10-20 11:35:00,,0828.5,5.01,0.00,27.1,25.4,00.0,36.0,28.8,08.0,0000.0,0003.42,0010.97,0002.85
2022-10-20 11:36:00,,0828.5,4.99,0.00,27.1,25.4,00.0,36.0,28.8,08.0,0000.0,0003.41,0011.24,0002.87
2022-10-20 11:37:00,,0828.5,5.00,0.00,27.1,25.4,00.0,36.0,28.9,08.0,0000.0,0003.45,0011.56,0002.89
2022-10-20 11:38:00,,0828.5,5.01,0.00,27.1,25.4,00.0,36.0,28.9,08.0,0000.0,0003.46,0011.67,0002.91
2022-10-20 11:39:00,,0828.5,5.00,0.00,27.1,25.4,00.0,36.0,28.9,08.0,0000.0,0003.44,0011.84,0002.91
2022-10-20 11:40:00,,0828.5,5.01,0.00,27.1,25.4,00.0,36.0,28.9,08.0,0000.0,0003.46,0011.91,0002.92
2022-10-20 11:41:00,,0828.5,5.01,0.00,27.1,25.4,00.0,36.0,28.9,08.0,0000.0,0003.45,0011.55,0002.90
2022-10-20 11:42:00,,0828.4,5.00,0.00,27.1,25.4,00.0,36.0,29.0,08.0,0000.0,0003.43,0010.85,0002.89
2022-10-20 11:43:00,,0828.4,5.00,0.00,27.1,25.4,00.0,36.0,29.0,08.0,0000.0,0003.42,0010.43,0002.88
2022-10-20 11:44:00,,0828.4,5.01,0.00,27.1,25.4,00.0,36.0,28.9,08.0,0000.0,0003.42,0010.25,0002.88
2022-10-20 11:45:00,,0828.4,5.00,0.00,27.1,25.4,00.0,36.0,28.9,08.0,0000.0,0003.43,0009.30,0002.87
2022-10-20 11:46:00,,0828.4,5.00,0.00,27.1,25.4,00.0,36.0,28.9,08.0,0000.0,0003.51,0009.06,0002.90
2022-10-20 11:47:00,,0828.4,4.99,0.00,27.1,25.4,00.0,36.0,28.9,08.0,0000.0,0003.57,0009.47,0002.92
2022-10-20 11:48:00,,0828.3,5.00,0.00,27.1,25.4,00.0,36.0,29.0,08.0,0000.0,0003.62,0009.23,0002.92
2022-10-20 11:49:00,,0828.4,4.99,0.00,27.1,25.4,00.0,36.0,29.0,08.0,0000.0,0003.65,0009.38,0002.92
2022-10-20 11:50:00,,0828.4,5.00,0.00,27.1,25.4,00.0,36.0,28.9,08.0,0000.0,0003.63,0009.13,0002.93
2022-10-20 11:51:00,,0828.4,5.00,0.00,27.1,25.4,00.0,36.0,28.9,08.0,0000.0,0003.61,0009.01,0002.90
2022-10-20 11:52:00,,0828.4,5.01,0.00,27.1,25.4,00.0,36.0,28.9,08.0,0000.0,0003.60,0008.96,0002.89
2022-10-20 11:53:00,,0828.4,5.01,0.00,27.1,25.4,00.0,36.0,29.0,08.0,0000.0,0003.60,0008.90,0002.89
2022-10-20 11:54:00,,0828.4,5.00,0.00,27.1,25.4,00.0,36.0,28.9,08.0,0000.0,0003.63,0009.01,0002.90
2022-10-20 11:55:00,,0828.4,4.99,0.00,27.1,25.4,00.0,36.0,28.9,08.0,0000.0,0003.63,0009.50,0002.89
2022-10-20 11:56:00,,0828.4,4.99,0.00,27.1,25.4,00.0,36.0,28.9,07.9,0000.0,0003.63,0009.10,0002.89
2022-10-20 11:57:00,,0828.4,5.00,0.00,27.1,25.4,00.0,36.0,28.9,07.9,0000.0,0003.63,0008.99,0002.88
2022-10-20 11:58:00,,0828.4,5.01,0.00,27.1,25.4,00.0,35.9,28.9,07.9,0000.0,0003.60,0008.70,0002.85
2022-10-20 11:59:00,,0828.4,5.00,0.00,27.1,25.4,00.0,35.9,28.9,07.9,0000.0,0003.55,0008.69,0002.84
